Temp
-8 -7 -7 -8 -8 -8 -8 -8 -9 -9 -9 -8 -8 -8 -8 -8 -8 -8 -8 -8 -8 -8 -8 -8 -8 -8 -8 -8 -8 -8 -8 -8 -9 -9 -9 -9 -8 -9 -8 -8 -8 -7 -8 -7 -8 -8 -8 -8 -8
-7 -7 -8 -8 -8 -8 -8 -8 -9 -8 -8 -8 -8 -8 -8 -9 -9 -9 -9 -9 -9 -9 -9 -9 -9 -9 -9 -9 -9 -9 -9 -9 -9 -9 -9 -9 -9 -9 -9 -9 -9 -8 -8 -8 -8 -8 -8 -9 -9
-8 -8 -8 -8 -9 -8 -8 -8 -8 -7 -8 -8 -8 -8 -9 -9 -9 -9 -9 -9 -9 -9 -9 -9 -9 -9 -9 -9 -9 -10 -9 -10 -10 -10 -9 -9 -9 -9 -9 -9 -9 -9 -9 -9 -9 -8 -9 -9 -9
-8 -8 -8 -8 -9 -9 -8 -8 -7 -7 -8 -8 -8 -8 -8 -8 -8 -8 -8 -9 -9 -9 -9 -10 -10 -10 -9 -9 -9 -9 -10 -10 -10 -10 -10 -10 -10 -9 -9 -9 -10 -10 -10 -9 -9 -9 -9 -9 -9
-8 -8 -8 -8 -9 -8 -8 -8 -8 -8 -8 -8 -8 -8 -8 -9 -9 -9 -9 -9 -10 -10 -9 -10 -10 -10 -10 -10 -10 -10 -10 -10 -10 -10 -10 -10 -10 -10 -10 -10 -10 -10 -10 -10 -10 -9 -9 -9 -9
-8 -8 -8 -9 -9 -8 -8 -8 -9 -9 -9 -9 -9 -9 -9 -10 -10 -10 -10 -11 -11 -10 -10 -10 -10 -10 -10 -10 -10 -10 -10 -10 -10 -10 -10 -11 -11 -10 -10 -10 -10 -10 -10 -10 -10 -10 -10 -10 -9
-8 -8 -8 -8 -9 -9 -9 -9 -9 -9 -9 -9 -9 -10 -10 -10 -10 -11 -11 -11 -11 -11 -11 -11 -11 -11 -11 -11 -11 -11 -11 -11 -11 -11 -11 -11 -11 -11 -11 -11 -11 -11 -10 -11 -11 -10 -10 -10 -10
-8 -8 -8 -8 -8 -8 -8 -9 -9 -9 -9 -10 -10 -10 -11 -11 -11 -11 -11 -11 -11 -11 -11 -11 -11 -11 -11 -11 -11 -11 -11 -11 -11 -11 -11 -12 -11 -11 -11 -11 -11 -11 -11 -11 -10 -11 -11 -11 -10
-8 -8 -8 -8 -8 -9 -9 -9 -10 -10 -10 -10 -11 -11 -11 -11 -11 -11 -11 -11 -11 -11 -11 -11 -11 -11 -11 -11 -12 -12 -13 -12 -12 -12 -12 -12 -12 -12 -12 -12 -12 -12 -11 -11 -11 -11 -11 -11 -11
-8 -8 -8 -8 -9 -9 -10 -10 -10 -10 -11 -11 -11 -11 -11 -11 -11 -11 -12 -12 -12 -12 -12 -12 -13 -13 -13 -13 -13 -13 -13 -13 -13 -14 -15 -15 -15 -15 -15 -15 -14 -14 -13 -13 -13 -12 -12 -11 -11
-8 -8 -9 -9 -10 -10 -10 -10 -11 -11 -11 -11 -11 -12 -12 -12 -12 -12 -12 -12 -12 -12 -12 -12 -12 -13 -14 -15 -15 -16 -16 -16 -16 -15 -15 -15 -15 -15 -15 -15 -16 -16 -16 -15 -16 -15 -14 -12 -12
-8 -9 -9 -10 -10 -10 -11 -11 -11 -11 -11 -11 -11 -12 -11 -11 -12 -12 -12 -12 -12 -12 -13 -14 -16 -18 -19 -19 -18 -17 -17 -16 -16 -15 -15 -15 -15 -15 -15 -15 -15 -15 -16 -16 -16 -16 -16 -15 -14
-8 -8 -9 -9 -10 -10 -10 -10 -11 -11 -11 -11 -12 -11 -11 -12 -12 -12 -13 -13 -13 -14 -16 -19 -19 -19 -19 -18 -18 -17 -17 -16 -16 -15 -15 -15 -15 -15 -15 -15 -15 -16 -16 -16 -17 -17 -17 -17 -17
-7 -8 -8 -9 -9 -10 -10 -10 -11 -11 -12 -11 -12 -12 -12 -12 -12 -12 -13 -13 -14 -16 -18 -19 -19 -18 -18 -17 -17 -16 -16 -15 -15 -15 -15 -15 -15 -16 -15 -16 -16 -16 -16 -16 -16 -17 -17 -18 -17
-8 -8 -8 -9 -9 -10 -10 -10 -11 -11 -11 -11 -12 -12 -12 -12 -13 -14 -14 -15 -16 -18 -18 -19 -18 -18 -18 -17 -17 -16 -16 -16 -16 -16 -15 -15 -16 -16 -16 -16 -16 -17 -17 -17 -17 -17 -17 -18 -18
-8 -8 -9 -9 -10 -10 -10 -11 -11 -11 -12 -12 -12 -12 -13 -13 -14 -15 -16 -17 -19 -19 -19 -19 -19 -18 -18 -18 -17 -17 -17 -16 -16 -16 -16 -16 -16 -16 -16 -17 -17 -17 -17 -17 -17 -17 -17 -17 -18
-8 -9 -9 -9 -10 -10 -11 -11 -11 -12 -12 -12 -12 -12 -13 -14 -16 -17 -19 -20 -20 -19 -19 -19 -19 -18 -18 -18 -18 -17 -17 -16 -16 -16 -16 -16 -16 -17 -17 -17 -17 -17 -18 -18 -18 -18 -18 -18 -18
-9 -9 -9 -10 -10 -11 -11 -12 -12 -12 -12 -12 -13 -13 -14 -16 -17 -19 -21 -21 -20 -20 -19 -19 -19 -19 -19 -19 -18 -18 -18 -18 -17 -17 -17 -17 -17 -17 -17 -17 -17 -18 -18 -18 -18 -18 -18 -18 -18
-9 -9 -10 -10 -11 -11 -12 -12 -12 -12 -12 -13 -13 -14 -15 -18 -20 -21 -21 -21 -20 -20 -19 -19 -19 -19 -19 -19 -18 -18 -19 -19 -18 -18 -17 -17 -17 -17 -17 -17 -18 -18 -19 -19 -19 -19 -18 -19 -18
-9 -10 -10 -11 -11 -12 -12 -12 -12 -12 -12 -13 -14 -15 -18 -21 -21 -22 -21 -21 -20 -20 -19 -20 -19 -19 -19 -19 -19 -18 -19 -19 -19 -19 -19 -18 -18 -18 -18 -18 -19 -18 -19 -19 -19 -19 -19 -18 -18
-10 -10 -11 -11 -11 -12 -12 -12 -12 -12 -13 -14 -15 -19 -20 -21 -22 -21 -20 -20 -19 -20 -20 -20 -20 -19 -19 -19 -19 -19 -19 -19 -20 -20 -20 -19 -19 -19 -20 -20 -19 -19 -19 -20 -20 -19 -19 -19 -19
-10 -10 -11 -11 -11 -12 -12 -11 -12 -13 -14 -15 -16 -18 -20 -21 -21 -20 -20 -20 -20 -20 -20 -20 -20 -20 -20 -19 -20 -20 -20 -20 -21 -21 -21 -21 -20 -20 -20 -20 -20 -20 -20 -20 -20 -19 -19 -20 -20
-10 -10 -11 -11 -11 -12 -12 -12 -12 -13 -14 -15 -16 -18 -20 -20 -19 -19 -19 -19 -20 -20 -20 -20 -21 -21 -20 -20 -20 -20 -20 -20 -21 -21 -21 -21 -21 -21 -21 -21 -20 -20 -20 -20 -20 -21 -21 -21 -21
-10 -10 -11 -11 -11 -12 -12 -12 -13 -13 -14 -15 -17 -19 -19 -19 -20 -19 -20 -20 -20 -20 -20 -20 -21 -21 -21 -20 -20 -20 -20 -20 -20 -21 -21 -21 -21 -21 -21 -21 -21 -21 -21 -21 -21 -22 -22 -22 -21
-10 -11 -11 -11 -11 -12 -12 -12 -13 -14 -14 -15 -17 -18 -19 -19 -19 -20 -20 -20 -20 -20 -20 -20 -21 -21 -21 -20 -20 -20 -20 -20 -20 -20 -20 -20 -20 -21 -21 -22 -21 -21 -21 -22 -22 -22 -22 -22 -22
-11 -11 -11 -11 -11 -12 -12 -13 -14 -14 -15 -16 -18 -19 -19 -19 -19 -19 -19 -19 -20 -20 -20 -20 -20 -21 -21 -20 -20 -20 -20 -20 -20 -20 -20 -20 -21 -22 -22 -22 -22 -22 -22 -23 -23 -23 -22 -23 -24
-11 -11 -11 -11 -11 -11 -12 -13 -13 -14 -15 -17 -18 -18 -18 -19 -19 -19 -19 -20 -20 -20 -20 -20 -20 -20 -20 -20 -20 -20 -20 -20 -21 -21 -21 -21 -22 -23 -23 -23 -23 -23 -23 -23 -24 -23 -23 -24 -25
-11 -11 -11 -11 -11 -12 -12 -13 -13 -14 -15 -16 -18 -19 -19 -19 -19 -19 -19 -20 -20 -20 -20 -20 -20 -20 -20 -21 -21 -21 -21 -21 -21 -22 -23 -23 -23 -24 -24 -24 -24 -24 -24 -24 -24 -24 -25 -25 -26
-11 -11 -11 -11 -11 -12 -12 -13 -13 -14 -15 -16 -18 -19 -19 -19 -19 -19 -19 -20 -20 -20 -20 -20 -20 -20 -21 -21 -21 -21 -21 -22 -22 -23 -24 -24 -25 -25 -26 -25 -25 -25 -25 -24 -25 -24 -25 -26 -27
-11 -11 -11 -11 -12 -12 -12 -13 -14 -14 -14 -16 -18 -19 -19 -19 -19 -19 -19 -20 -20 -20 -20 -20 -20 -20 -21 -21 -21 -22 -22 -23 -23 -25 -25 -26 -26 -26 -27 -26 -26 -26 -25 -25 -25 -25 -26 -27 -28
Height
5879 5878 5878 5877 5879 5876 5874 5873 5870 5868 5865 5862 5860 5859 5858 5856 5854 5854 5850 5847 5845 5841 5838 5837 5836 5834 5833 5831 5830 5828 5826 5824 5823 5822 5822 5822 5821 5821 5821 5821 5821 5821 5823 5824 5824 5826 5827 5828 5828
5878 5877 5877 5876 5876 5873 5871 5869 5866 5865 5863 5861 5859 5857 5855 5852 5850 5847 5844 5840 5838 5835 5833 5831 5829 5827 5825 5823 5821 5820 5818 5818 5815 5813 5813 5814 5813 5812 5812 5813 5814 5813 5812 5814 5816 5818 5819 5820 5822
5879 5878 5877 5874 5872 5871 5869 5866 5864 5862 5860 5858 5856 5854 5851 5849 5845 5842 5838 5835 5833 5830 5826 5823 5821 5818 5815 5813 5811 5809 5808 5807 5806 5803 5803 5801 5802 5803 5804 5804 5804 5804 5804 5805 5805 5808 5810 5812 5813
5879 5878 5876 5873 5871 5868 5866 5864 5861 5859 5857 5855 5852 5850 5847 5843 5839 5836 5833 5830 5826 5823 5819 5816 5812 5808 5804 5802 5800 5798 5796 5795 5795 5793 5791 5791 5790 5789 5792 5793 5792 5793 5794 5794 5795 5797 5798 5802 5804
5877 5876 5874 5872 5869 5866 5863 5861 5859 5857 5854 5850 5847 5843 5840 5838 5834 5830 5826 5822 5818 5813 5808 5803 5798 5794 5791 5788 5785 5782 5780 5778 5778 5778 5777 5776 5775 5775 5777 5777 5778 5780 5780 5782 5784 5784 5787 5789 5792
5874 5873 5872 5869 5866 5864 5862 5859 5856 5853 5849 5845 5841 5837 5833 5828 5825 5820 5816 5811 5806 5803 5797 5792 5786 5781 5777 5773 5769 5766 5763 5761 5759 5759 5758 5758 5758 5758 5760 5760 5761 5763 5764 5768 5769 5773 5774 5777 5780
5873 5872 5870 5867 5865 5862 5859 5856 5852 5848 5844 5839 5834 5829 5825 5819 5814 5809 5805 5800 5794 5788 5782 5777 5771 5766 5761 5756 5753 5749 5744 5743 5741 5739 5739 5739 5741 5742 5741 5742 5744 5744 5748 5750 5753 5757 5760 5762 5766
5872 5870 5867 5865 5862 5859 5855 5851 5847 5843 5838 5832 5827 5822 5817 5812 5806 5800 5794 5788 5782 5776 5768 5762 5756 5749 5744 5738 5732 5729 5726 5723 5720 5719 5719 5718 5718 5718 5721 5722 5723 5725 5728 5731 5735 5739 5741 5746 5750
5870 5868 5864 5861 5859 5856 5852 5848 5843 5836 5831 5826 5821 5816 5810 5804 5797 5790 5784 5776 5768 5759 5750 5742 5735 5729 5722 5715 5710 5704 5702 5700 5700 5699 5697 5696 5696 5696 5696 5698 5700 5701 5705 5709 5713 5717 5721 5727 5733
5868 5865 5862 5859 5855 5851 5847 5841 5836 5831 5826 5821 5814 5808 5802 5795 5788 5782 5774 5765 5756 5747 5738 5728 5719 5711 5704 5698 5693 5688 5684 5681 5679 5679 5678 5679 5679 5679 5678 5678 5678 5678 5680 5684 5689 5694 5699 5703 5712
5865 5861 5858 5854 5849 5844 5840 5834 5829 5824 5819 5813 5807 5800 5793 5787 5778 5770 5761 5750 5741 5732 5721 5708 5697 5687 5678 5673 5670 5668 5668 5668 5668 5666 5665 5664 5665 5665 5665 5663 5662 5662 5662 5664 5665 5668 5675 5682 5687
5861 5858 5853 5848 5844 5839 5834 5828 5823 5818 5812 5806 5798 5792 5785 5777 5768 5760 5750 5737 5725 5713 5700 5687 5675 5668 5663 5660 5658 5657 5658 5658 5658 5656 5655 5655 5653 5654 5651 5652 5651 5650 5648 5647 5648 5651 5653 5657 5664
5859 5855 5850 5845 5840 5835 5829 5824 5819 5813 5806 5799 5792 5784 5777 5767 5758 5746 5733 5720 5708 5694 5682 5673 5668 5664 5660 5656 5653 5650 5648 5649 5647 5645 5645 5644 5644 5643 5641 5641 5640 5638 5636 5635 5633 5633 5636 5639 5642
5858 5854 5848 5843 5837 5831 5825 5820 5814 5809 5801 5793 5785 5776 5767 5756 5743 5730 5716 5704 5691 5679 5670 5666 5661 5657 5653 5649 5644 5642 5640 5637 5635 5634 5634 5633 5631 5630 5629 5628 5626 5624 5623 5622 5620 5617 5617 5620 5624
5857 5851 5845 5839 5833 5827 5821 5817 5810 5802 5794 5786 5778 5768 5756 5742 5727 5712 5699 5686 5676 5668 5664 5660 5656 5651 5645 5640 5635 5632 5630 5626 5623 5621 5619 5619 5617 5617 5616 5615 5613 5610 5608 5608 5607 5605 5603 5603 5605
5854 5848 5841 5835 5829 5824 5817 5811 5805 5799 5791 5781 5770 5757 5743 5727 5711 5696 5683 5673 5665 5662 5659 5655 5650 5645 5640 5634 5629 5625 5622 5618 5615 5611 5608 5605 5604 5603 5601 5599 5598 5596 5594 5593 5592 5590 5590 5588 5587
5850 5844 5837 5831 5824 5819 5813 5807 5800 5793 5783 5772 5760 5747 5731 5715 5697 5682 5669 5662 5660 5658 5654 5650 5645 5639 5635 5630 5624 5618 5613 5608 5604 5600 5596 5592 5589 5587 5586 5585 5583 5580 5580 5578 5577 5576 5575 5575 5574
5847 5840 5834 5828 5823 5817 5810 5802 5794 5786 5775 5764 5750 5734 5716 5701 5683 5669 5662 5658 5656 5653 5649 5644 5639 5632 5627 5621 5616 5610 5604 5599 5593 5587 5582 5578 5575 5572 5570 5569 5567 5565 5563 5562 5560 5558 5558 5558 5557
5843 5837 5831 5825 5819 5813 5806 5797 5789 5779 5768 5754 5739 5722 5704 5684 5670 5660 5657 5654 5653 5650 5645 5640 5633 5626 5620 5614 5607 5601 5595 5588 5581 5575 5569 5562 5558 5555 5553 5551 5550 5548 5547 5546 5545 5544 5541 5540 5539
5840 5833 5826 5821 5815 5808 5802 5794 5784 5772 5760 5745 5727 5705 5686 5672 5663 5658 5657 5653 5650 5647 5641 5634 5627 5619 5612 5604 5596 5588 5581 5574 5567 5560 5553 5546 5542 5538 5536 5534 5534 5533 5533 5531 5530 5527 5526 5523 5519
5837 5830 5823 5818 5811 5804 5797 5789 5778 5766 5750 5733 5712 5694 5678 5667 5663 5661 5657 5652 5647 5642 5636 5628 5620 5611 5602 5594 5585 5576 5566 5557 5550 5543 5537 5531 5527 5524 5522 5521 5520 5519 5518 5518 5515 5512 5510 5506 5502
5835 5829 5823 5816 5809 5800 5792 5783 5770 5758 5743 5724 5710 5691 5677 5670 5665 5661 5656 5651 5646 5639 5632 5625 5616 5605 5594 5583 5575 5565 5556 5547 5539 5531 5525 5520 5516 5513 5512 5510 5508 5508 5506 5505 5503 5499 5495 5491 5487
5836 5829 5821 5814 5805 5797 5788 5777 5764 5751 5739 5726 5705 5687 5678 5670 5666 5660 5655 5649 5642 5636 5630 5621 5610 5599 5587 5578 5569 5560 5551 5541 5533 5526 5519 5514 5510 5506 5504 5502 5500 5497 5495 5493 5489 5485 5480 5475 5470
5834 5826 5820 5811 5802 5793 5782 5772 5759 5747 5735 5720 5699 5686 5679 5673 5666 5660 5654 5648 5641 5635 5627 5619 5609 5598 5588 5577 5568 5558 5548 5539 5531 5524 5518 5511 5506 5501 5497 5493 5490 5487 5484 5481 5477 5472 5466 5460 5454
5830 5823 5816 5808 5797 5788 5778 5768 5757 5742 5728 5713 5697 5688 5679 5675 5668 5662 5656 5650 5643 5635 5628 5619 5609 5599 5589 5579 5569 5559 5548 5537 5529 5521 5513 5506 5500 5494 5489 5484 5480 5477 5473 5469 5465 5460 5454 5447 5440
5831 5823 5814 5805 5797 5790 5779 5766 5755 5739 5722 5702 5692 5688 5682 5674 5668 5662 5655 5649 5643 5635 5627 5618 5609 5600 5589 5580 5569 5559 5548 5538 5527 5518 5509 5500 5492 5485 5479 5474 5469 5465 5461 5457 5453 5448 5443 5436 5429
5829 5821 5814 5807 5798 5786 5775 5763 5751 5736 5720 5706 5694 5688 5681 5676 5669 5662 5655 5648 5642 5634 5626 5618 5609 5599 5589 5580 5570 5559 5549 5538 5526 5515 5504 5493 5483 5476 5469 5463 5457 5453 5450 5447 5443 5439 5433 5426 5420
5827 5819 5811 5801 5791 5782 5773 5761 5748 5737 5724 5707 5694 5688 5682 5675 5668 5662 5656 5649 5642 5634 5626 5617 5608 5599 5589 5580 5570 5559 5547 5535 5522 5508 5495 5483 5472 5463 5456 5451 5446 5443 5440 5437 5436 5431 5425 5419 5413
5826 5818 5810 5802 5792 5780 5768 5760 5746 5732 5719 5704 5691 5684 5680 5675 5669 5663 5657 5650 5643 5635 5627 5618 5610 5601 5591 5581 5571 5559 5546 5532 5516 5499 5483 5470 5458 5450 5444 5440 5437 5434 5432 5431 5429 5425 5419 5411 5406
5825 5817 5810 5801 5792 5781 5770 5759 5744 5732 5718 5702 5688 5684 5679 5675 5669 5663 5658 5651 5645 5637 5629 5620 5611 5602 5592 5582 5570 5558 5545 5529 5511 5491 5475 5461 5449 5440 5433 5430 5428 5427 5426 5426 5425 5421 5414 5406 5400
Wind_Speed
6 6 6 8 8 10 9 10 10 12 16 18 20 20 19 20 23 24 25 28 30 32 35 35 37 38 37 37 38 39 40 41 41 39 39 38 39 39 38 38 40 41 42 41 35 36 39 40 39
8 7 8 10 10 11 9 10 13 15 17 20 21 22 23 23 27 28 30 32 34 37 39 40 41 42 44 44 45 45 46 45 47 47 47 45 43 44 45 43 42 44 45 45 45 42 35 38 41
9 9 10 11 12 13 14 15 16 16 19 21 23 24 25 27 30 32 36 38 41 43 45 46 47 48 49 50 51 50 50 49 49 51 50 51 50 51 51 51 49 48 47 48 49 48 49 43 39
11 12 11 13 15 17 17 17 20 21 22 25 26 28 30 32 35 38 42 44 45 47 50 52 53 54 55 56 56 57 58 57 56 57 56 56 57 57 57 56 57 56 55 53 52 51 52 51 51
11 12 13 13 15 19 20 22 24 27 29 31 32 35 37 39 41 43 46 49 50 52 54 57 60 61 61 62 63 64 65 65 64 63 64 64 63 63 61 62 62 62 61 61 60 59 56 55 55
13 12 14 16 18 22 24 27 29 31 33 36 39 42 44 46 47 49 50 51 53 55 58 61 63 65 67 69 70 71 71 70 70 69 68 67 67 67 67 67 66 66 68 66 65 65 63 61 58
13 15 17 19 21 22 24 27 31 34 37 40 44 47 49 50 51 52 55 57 59 61 64 67 68 69 70 70 70 72 72 72 72 73 74 73 71 71 71 71 71 72 71 71 70 69 69 67 65
17 18 20 21 23 26 29 31 34 38 42 45 46 49 51 52 54 56 58 61 62 63 65 67 69 72 74 76 77 78 77 77 78 78 77 78 78 78 78 77 78 78 78 79 78 76 74 72 71
17 19 21 25 27 30 33 36 39 42 44 46 48 49 51 53 56 57 57 59 63 68 72 75 78 80 82 84 85 86 85 84 81 76 73 72 69 72 76 79 82 83 84 84 84 85 83 79 77
19 22 25 28 31 33 35 39 41 43 44 46 48 50 51 51 52 55 58 62 66 71 76 81 83 86 88 88 84 79 74 69 61 54 49 48 50 50 53 58 64 69 70 72 78 87 89 89 84
23 26 28 30 32 34 37 39 41 42 44 46 45 45 48 51 54 57 62 67 72 77 83 87 90 91 83 67 54 52 51 46 41 39 38 35 30 34 32 34 40 47 54 62 63 72 83 90 91
24 27 29 31 33 35 36 39 40 41 40 41 44 47 50 53 57 61 66 72 77 83 86 82 67 50 38 34 36 39 41 39 36 36 38 37 35 37 36 36 36 37 42 50 58 58 60 76 85
25 28 30 31 32 33 34 36 37 37 39 42 46 50 53 58 63 68 74 79 82 82 68 42 32 33 34 35 37 38 37 37 37 38 42 43 43 42 45 45 45 43 43 42 48 58 62 60 63
26 28 30 30 31 33 34 35 35 37 41 46 49 52 58 64 68 73 76 79 79 66 38 33 34 35 33 32 29 30 32 35 36 38 40 43 47 49 49 47 49 49 47 45 42 46 58 63 63
26 28 30 31 31 31 33 34 35 38 44 47 50 56 62 67 72 75 77 75 64 38 31 34 32 31 31 31 30 31 33 36 37 38 39 42 45 47 49 49 49 50 51 49 45 42 43 58 63
28 30 30 30 30 31 33 35 36 40 44 48 53 59 65 70 75 74 73 61 35 30 31 31 30 30 31 32 33 34 35 36 36 37 38 41 43 44 47 49 49 50 51 52 49 46 45 43 59
31 29 30 31 31 33 34 35 37 42 46 51 57 64 71 75 73 70 58 34 27 28 27 30 31 31 32 33 35 36 36 37 40 42 43 44 45 46 48 50 52 52 52 51 49 50 48 48 46
31 29 30 30 31 33 34 37 40 45 49 55 62 70 76 74 72 61 39 25 25 26 28 33 35 37 38 37 37 37 38 40 43 44 46 47 47 47 49 49 50 52 53 53 52 52 50 48 50
31 30 31 32 34 34 36 39 42 47 52 59 67 75 78 73 59 40 26 25 27 27 30 36 38 39 39 39 39 40 41 43 45 47 50 53 53 53 53 52 49 49 49 52 51 51 50 49 53
32 32 34 35 35 36 38 38 42 48 55 63 73 78 75 58 37 25 23 25 27 27 33 39 40 41 42 44 46 48 48 48 49 50 50 52 53 52 48 47 46 45 45 44 48 46 48 50 51
33 34 36 35 36 37 39 41 44 52 61 70 75 73 62 39 25 21 23 26 27 32 38 41 42 45 47 50 51 50 48 48 46 45 44 44 43 42 41 38 36 37 37 38 41 43 44 48 51
33 34 34 35 37 39 42 46 49 58 65 71 73 66 41 26 24 26 28 29 31 36 38 41 44 48 49 46 40 41 41 40 38 35 29 28 28 26 27 28 29 31 33 36 38 41 41 43 47
33 33 36 37 37 39 42 48 55 62 67 71 70 46 26 25 27 31 31 34 37 37 39 42 45 45 43 41 39 39 38 36 32 29 27 25 23 23 23 25 30 29 30 33 37 38 42 45 45
34 35 36 36 39 41 45 51 58 64 71 74 63 29 25 26 31 32 34 35 35 36 38 44 42 44 45 45 44 43 40 35 32 30 27 27 25 27 27 30 27 27 31 34 37 39 39 41 44
36 37 38 39 43 44 48 53 58 64 72 74 53 25 26 30 33 31 32 31 32 32 38 40 41 42 42 43 43 43 44 41 36 32 28 26 26 27 30 25 26 32 36 36 38 35 37 38 39
34 36 37 41 44 44 47 53 58 64 73 70 41 27 28 31 31 32 31 31 32 35 38 39 40 41 42 42 44 45 44 43 41 40 36 31 27 24 24 26 27 31 34 32 30 31 33 35 33
35 37 38 41 43 48 50 54 60 66 70 62 36 22 26 31 30 33 30 31 33 36 38 40 42 41 43 45 44 44 46 47 45 43 40 37 34 32 32 33 32 31 28 29 28 26 28 30 26
36 38 41 44 49 50 52 55 61 66 70 63 35 22 26 27 30 31 30 32 35 37 39 41 41 42 44 44 47 50 51 50 49 47 45 42 40 39 37 36 33 26 23 21 16 19 23 27 24
35 38 41 43 48 52 56 56 61 69 72 61 36 21 27 26 29 28 29 33 36 38 40 40 41 41 43 46 50 51 52 53 53 52 52 46 40 38 32 28 22 18 14 12 9 18 23 25 20
34 37 38 43 48 51 55 58 63 69 75 61 34 23 26 26 28 26 29 33 35 38 39 40 40 42 44 49 51 52 56 59 59 54 48 43 38 31 28 24 20 18 8 9 9 17 24 22 18
Wind_Direction
267 286 312 310 308 299 294 290 287 275 273 278 282 286 290 290 295 297 292 291 291 288 285 286 289 289 284 281 280 280 281 283 282 277 275 275 275 271 266 267 269 270 266 261 261 261 260 257 257
285 299 306 305 299 289 284 278 275 273 275 280 287 297 300 299 296 293 292 288 287 288 289 287 285 283 282 281 280 278 277 276 278 278 278 277 274 272 271 267 264 265 266 265 262 258 259 258 258
282 301 307 299 303 307 307 296 292 287 288 294 293 291 288 284 284 283 283 287 290 290 287 285 285 283 280 279 279 278 275 275 275 275 276 276 275 274 273 271 266 263 262 263 262 260 258 256 255
307 317 313 313 312 306 301 292 290 287 293 295 291 284 284 287 287 287 288 289 289 288 287 285 283 282 280 277 275 274 276 277 276 276 276 275 274 273 271 269 269 267 264 261 259 260 259 256 255
320 319 316 306 301 293 289 289 297 303 300 292 290 292 292 292 293 293 292 292 292 291 291 291 290 289 286 284 283 282 281 281 279 277 276 275 273 271 269 268 268 267 266 263 261 259 257 255 255
319 319 309 301 294 297 301 303 301 300 300 300 299 298 300 301 300 299 298 297 295 293 291 289 288 287 287 287 286 285 284 282 280 278 276 275 272 270 269 267 265 264 264 263 261 260 258 255 253
315 313 311 305 306 310 305 302 300 299 298 299 301 302 303 302 303 302 300 299 297 296 294 292 291 290 288 286 284 281 280 279 277 276 276 274 272 271 269 267 265 264 263 261 260 258 257 255 253
313 314 314 314 310 308 303 300 301 303 302 302 304 305 304 305 302 301 300 300 300 299 297 294 292 290 288 286 283 280 278 277 279 280 280 279 278 276 272 269 267 265 263 261 260 258 256 255 252
315 314 314 312 309 306 305 304 304 304 304 305 305 304 305 304 302 303 305 305 303 301 300 298 296 294 291 289 288 288 288 286 285 285 283 281 279 276 274 272 270 267 263 260 259 257 256 254 252
318 318 314 311 309 307 308 308 307 305 304 305 306 306 303 305 308 308 306 302 300 298 298 296 293 290 289 286 285 284 284 284 282 279 279 278 276 276 274 271 270 268 266 262 259 257 256 255 252
326 320 317 315 312 311 310 308 306 306 310 309 307 307 309 309 307 306 305 303 300 298 299 297 295 296 295 290 279 269 267 271 273 275 278 279 277 282 285 284 279 273 270 265 263 257 254 252 252
328 323 320 318 315 313 310 309 311 314 312 312 311 310 310 310 306 304 301 300 301 303 303 305 303 301 290 277 269 264 267 269 269 273 280 280 283 281 281 281 282 285 280 271 265 261 259 251 248
334 330 325 321 318 316 315 316 318 317 317 313 312 313 312 309 308 307 306 307 309 309 309 306 306 303 298 291 287 280 274 277 277 276 278 273 275 278 279 278 278 281 281 283 272 262 257 257 255
340 335 329 323 323 323 322 322 322 322 317 317 315 313 311 311 310 307 308 310 310 312 305 310 313 310 304 301 296 287 286 288 285 280 275 274 272 276 273 279 277 280 281 279 281 272 259 255 255
340 334 330 328 328 325 325 327 328 323 320 316 315 313 313 311 309 313 314 312 313 303 307 314 314 314 314 311 310 306 295 295 292 288 282 282 277 271 272 276 278 277 278 278 278 276 275 257 254
344 341 336 334 332 332 331 332 328 322 320 319 316 315 312 311 317 318 314 314 307 308 313 315 319 319 319 318 313 308 303 300 295 295 293 290 285 276 271 274 276 277 275 274 275 275 276 273 256
347 345 341 341 337 337 334 331 328 326 324 320 319 316 314 318 320 315 317 311 306 313 318 323 321 322 322 318 313 310 307 302 298 297 293 290 284 280 276 274 274 273 274 273 270 272 273 270 268
350 347 344 342 340 340 336 336 331 329 326 325 322 320 322 323 320 319 318 316 318 321 323 324 327 325 321 318 315 312 309 305 302 299 295 291 287 284 280 277 275 271 270 270 272 274 273 270 270
351 349 348 345 344 343 342 340 338 333 331 328 326 325 326 327 327 326 326 334 325 326 327 328 331 327 321 317 313 312 311 307 302 297 293 290 287 283 280 277 277 273 268 268 270 273 276 273 276
354 353 352 350 348 347 348 348 342 338 335 333 332 332 331 333 337 343 340 331 326 327 335 336 333 327 324 322 321 317 313 308 303 298 294 291 288 286 283 278 274 272 268 269 272 275 276 279 281
358 357 353 351 352 352 351 356 345 342 342 341 339 334 335 346 0 357 347 339 343 343 342 339 336 332 328 324 321 320 317 313 308 303 299 293 287 283 282 278 271 265 267 272 272 276 280 281 282
360 355 352 352 354 356 356 354 348 348 348 346 339 339 349 10 6 1 355 359 354 352 348 345 340 335 333 334 338 335 332 326 320 315 311 301 293 287 282 278 274 273 273 273 278 281 283 289 291
0 355 356 353 359 360 356 354 352 353 351 348 341 349 13 14 6 1 2 359 358 359 355 353 356 358 356 353 350 347 344 341 339 334 330 322 312 301 291 286 284 277 276 280 284 289 291 296 292
0 358 358 0 3 3 359 357 355 353 352 351 345 0 16 9 4 4 3 1 3 4 4 357 359 4 5 9 7 4 358 351 346 340 332 323 313 306 297 301 292 283 287 282 292 295 298 301 296
1 357 1 7 5 4 0 357 356 355 353 351 354 5 5 4 5 4 4 5 6 1 359 0 1 4 4 3 4 6 8 5 359 349 338 324 315 306 301 296 287 285 289 289 294 295 303 308 302
2 3 6 3 4 5 1 357 357 357 355 353 354 358 357 3 4 2 7 8 4 2 1 6 4 4 6 5 4 4 3 0 358 352 347 340 331 316 295 292 291 290 290 291 295 298 307 316 302
5 6 4 5 8 7 3 359 0 0 357 355 350 347 355 2 359 6 7 5 2 1 1 2 5 7 6 3 1 1 358 355 351 344 336 328 318 307 298 295 300 305 302 294 289 308 318 317 301
4 5 4 5 6 7 5 359 358 359 358 355 345 350 1 4 2 6 5 5 2 3 4 5 5 5 6 4 360 358 356 353 347 340 329 317 313 313 312 313 314 310 304 304 301 326 328 320 303
1 3 6 6 7 4 2 0 359 359 358 355 348 352 4 1 5 7 4 5 2 1 4 6 5 6 8 2 1 0 358 354 345 336 332 330 322 313 317 310 310 310 308 303 339 338 333 329 303
0 2 5 5 5 5 1 2 359 358 357 357 356 1 3 359 5 7 5 6 2 2 5 6 6 6 7 2 5 4 2 359 358 353 354 350 347 340 323 308 307 314 301 343 355 351 353 348 340